Change the Weather History Date:

Monday, April 8, 2013

  Actual Average Record
Temperature  
Mean Temperature 61 °F 61 °F  
Max Temperature 66 °F 68 °F 89 °F (2014)
Min Temperature 56 °F 53 °F 44 °F (2001)
Degree Days  
Heating Degree Days 4 5  
Month to date heating degree days 19 40  
Since 1 July heating degree days 1039 1127  
Cooling Degree Days 0 0  
Month to date cooling degree days 0 0  
Year to date cooling degree days 4 15  
Growing Degree Days 12 (Base 50)    
Moisture  
Dew Point 46 °F    
Average Humidity 60    
Maximum Humidity 80    
Minimum Humidity 40    
Precipitation  
Precipitation 0.00 in 0.02 in 0.10 in (1999)
Month to date precipitation 0.01 0.20  
Year to date precipitation 1.68 7.96  
Since 1 July precipitation 4.70 12.33  
Snow  
Snow 0.00 in - - ()
Month to date snowfall 0.0  
Year to date snowfall 0.0  
Since 1 July snowfall 0.0  
Snow Depth -    
Sea Level Pressure  
Sea Level Pressure 29.73 in    
Wind  
Wind Speed 9 mph (WSW)    
Max Wind Speed 17 mph    
Max Gust Speed 30 mph    
Visibility 10 miles    
Events      
T = Trace of Precipitation, MM = Missing Value Source: NWS Daily Summary

Daily Weather History Graph

Daily Weather History Graph

Search for Another Location

Airport or City:

Trip Planner

Search our weather history database for the weather conditions in past years. The results will help you decide how hot, cold, wet, or windy it might be!

Date:

Astronomy

Apr. 08, 2013 Rise Set
Actual Time 6:29 AM PDT 7:17 PM PDT
Civil Twilight 6:04 AM PDT 7:42 PM PDT
Nautical Twilight 5:34 AM PDT 8:12 PM PDT
Astronomical Twilight 5:03 AM PDT 8:43 PM PDT
Moon 5:17 AM PDT (4/8) 5:59 PM PDT (4/8)
Length of Visible Light 13h 38m
Length of Day
12h 48m
Waning Crescent, 3% of the Moon is Illuminated
Apr 8
Waning Crescent
Apr 10
New
Apr 18
First Quarter
Apr 25
Full
May 2
Last Quarter

Hourly Weather History & Observations

Time (PDT) Temp. Dew Point Humidity Pressure Visibility Wind Dir Wind Speed Gust Speed Precip Events Conditions
12:53 AM 57.9 °F 52.0 °F 81% 29.82 in 10.0 mi Calm Calm - N/A   Clear
1:53 AM 57.9 °F 52.0 °F 81% 29.80 in 10.0 mi SE 5.8 mph - N/A   Clear
2:34 AM 57.2 °F 51.8 °F 82% 29.78 in 10.0 mi Calm Calm - N/A   Mostly Cloudy
2:53 AM 57.9 °F 52.0 °F 81% 29.75 in 10.0 mi SSE 5.8 mph - N/A   Mostly Cloudy
3:53 AM 59.0 °F 52.0 °F 78% 29.74 in 10.0 mi SE 6.9 mph - N/A   Overcast
4:53 AM 59.0 °F 52.0 °F 78% 29.73 in 10.0 mi SSE 3.5 mph - N/A   Overcast
5:04 AM 59.0 °F 51.8 °F 77% 29.73 in 10.0 mi South 4.6 mph - N/A   Overcast
5:41 AM 59.0 °F 53.6 °F 82% 29.72 in 10.0 mi SSW 6.9 mph - N/A   Overcast
5:53 AM 59.0 °F 52.0 °F 78% 29.72 in 9.0 mi SW 6.9 mph - N/A   Overcast
6:34 AM 57.2 °F 48.2 °F 72% 29.71 in 10.0 mi WSW 9.2 mph 17.3 mph N/A   Mostly Cloudy
6:53 AM 57.0 °F 48.0 °F 72% 29.73 in 10.0 mi Variable 6.9 mph 18.4 mph N/A   Scattered Clouds
7:53 AM 57.9 °F 48.0 °F 70% 29.70 in 10.0 mi West 11.5 mph 19.6 mph N/A   Mostly Cloudy
8:00 AM 57.2 °F 46.4 °F 67% 29.70 in 10.0 mi West 10.4 mph 21.9 mph N/A   Mostly Cloudy
8:43 AM 57.2 °F 46.4 °F 67% 29.70 in 10.0 mi West 17.3 mph 29.9 mph N/A   Scattered Clouds
8:53 AM 57.9 °F 45.0 °F 62% 29.70 in 9.0 mi West 17.3 mph 24.2 mph N/A   Scattered Clouds
9:53 AM 57.0 °F 43.0 °F 59% 29.72 in 10.0 mi West 10.4 mph 21.9 mph N/A   Scattered Clouds
10:53 AM 61.0 °F 42.1 °F 50% 29.73 in 10.0 mi WSW 11.5 mph 17.3 mph N/A   Scattered Clouds
11:53 AM 63.0 °F 43.0 °F 48% 29.72 in 10.0 mi SW 10.4 mph - N/A   Scattered Clouds
12:53 PM 64.9 °F 41.0 °F 42% 29.71 in 10.0 mi West 11.5 mph - N/A   Partly Cloudy
1:53 PM 64.0 °F 41.0 °F 43% 29.69 in 10.0 mi WSW 15.0 mph 21.9 mph N/A   Scattered Clouds
2:53 PM 64.9 °F 41.0 °F 42% 29.69 in 10.0 mi WSW 12.7 mph 21.9 mph N/A   Scattered Clouds
3:53 PM 66.0 °F 41.0 °F 40% 29.68 in 10.0 mi West 11.5 mph 23.0 mph N/A   Scattered Clouds
4:53 PM 66.0 °F 42.1 °F 42% 29.66 in 10.0 mi WSW 11.5 mph 18.4 mph N/A   Scattered Clouds
5:53 PM 66.0 °F 41.0 °F 40% 29.69 in 10.0 mi West 9.2 mph - N/A   Scattered Clouds
6:53 PM 64.0 °F 39.9 °F 41% 29.71 in 10.0 mi WSW 4.6 mph - N/A   Scattered Clouds
7:53 PM 61.0 °F 43.0 °F 52% 29.73 in 10.0 mi West 9.2 mph 17.3 mph N/A   Scattered Clouds
8:53 PM 60.1 °F 43.0 °F 53% 29.75 in 10.0 mi WNW 8.1 mph - N/A   Partly Cloudy
9:53 PM 61.0 °F 39.0 °F 44% 29.78 in 10.0 mi Variable 4.6 mph - N/A   Partly Cloudy
10:53 PM 59.0 °F 41.0 °F 51% 29.80 in 10.0 mi East 3.5 mph - N/A   Partly Cloudy
11:53 PM 59.0 °F 39.9 °F 49% 29.81 in 10.0 mi Variable 3.5 mph - N/A   Clear